Tracking 29892 objects as of 21-Nov-2024
HD Live streaming from Space Station
objects crossing your sky now

STARLINK-32445

Track STARLINK-32445 now!
10-day predictions
STARLINK-32445 is classified as:


NORAD ID: 61546
Int'l Code: 2024-184Q
Perigee: 453.7 km
Apogee: 455.0 km
Inclination: 53.2 °
Period: 93.5 minutes
Semi major axis: 6825 km
RCS: Unknown
Launch date: October 15, 2024
Source: United States (US)
Launch site: AIR FORCE WESTERN TEST RANGE (AFWTR)
Your satellite tracking list
Your tracking list is empty




NASA's NSSDC Master Catalog

Two Line Element Set (TLE):
1 61546U 24184Q   24325.30522297 -.00000042  00000-0  89206-5 0  9994
2 61546  53.1587  63.3057 0001003  74.4023 285.7093 15.39630664  5799
Source of the keplerian elements: AFSPC